Weather History for KBBG - February, 2014

Change the Weather History Date:

Friday, February 21, 2014

  Actual Average (KHRO) Record (KHRO)
Temperature  
Mean Temperature 45 °F 42 °F  
Max Temperature 57 °F 52 °F 76 °F (1897)
Min Temperature 33 °F 32 °F 9 °F (1963)
Degree Days  
Heating Degree Days 20 23  
Month to date heating degree days 532  
Since 1 July heating degree days 3018  
Cooling Degree Days 0 0  
Month to date cooling degree days 0  
Year to date cooling degree days 0  
Moisture  
Dew Point 14 °F    
Average Humidity 31    
Maximum Humidity 52    
Minimum Humidity 14    
Precipitation  
Precipitation 0.00 in 0.10 in 1.30 in (1951)
Month to date precipitation 1.92  
Year to date precipitation 4.48  
Snow  
Snow 0.00 in 0.10 in 6.00 in (1912)
Month to date snowfall 2.5  
Since 1 July snowfall 8.5  
Snow Depth -    
Sea Level Pressure  
Sea Level Pressure 29.99 in    
Wind  
Wind Speed 8 mph (WSW)    
Max Wind Speed 13 mph    
Max Gust Speed 21 mph    
Visibility 10 miles    
Events      
T = Trace of Precipitation, MM = Missing Value Source: NWS Daily Summary

Daily Weather History Graph

Daily Weather History Graph

Search for Another Location

Airport or City:

Trip Planner

Search our weather history database for the weather conditions in past years. The results will help you decide how hot, cold, wet, or windy it might be!

Date:

Astronomy

Feb. 21, 2014 Rise Set
Actual Time 6:53 AM CST 5:59 PM CST
Civil Twilight 6:27 AM CST 6:25 PM CST
Nautical Twilight 5:57 AM CST 6:55 PM CST
Astronomical Twilight 5:27 AM CST 7:25 PM CST
Moon No Moon Rise 10:29 AM CST (2/21)
Length of Visible Light 11h 58m
Length of Day
11h 06m
Waning Gibbous, 60% of the Moon is Illuminated
Feb 21
Waning Gibbous
Feb 22
Last Quarter
Mar 1
New
Mar 8
First Quarter
Mar 16
Full

Hourly Weather History & Observations

Time (CST) Temp. Windchill Dew Point Humidity Pressure Visibility Wind Dir Wind Speed Gust Speed Precip Events Conditions
12:15 AM 41.0 °F 35.8 °F 15.8 °F 36% 29.92 in 10.0 mi West 8.1 mph 18.4 mph N/A   Clear
12:35 AM 41.0 °F 35.2 °F 15.8 °F 36% 29.92 in 10.0 mi West 9.2 mph 20.7 mph N/A   Clear
12:55 AM 41.0 °F 34.7 °F 15.8 °F 36% 29.93 in 10.0 mi West 10.4 mph 19.6 mph N/A   Clear
1:15 AM 41.0 °F 35.2 °F 15.8 °F 36% 29.94 in 10.0 mi West 9.2 mph 17.3 mph N/A   Clear
1:35 AM 41.0 °F 34.7 °F 15.8 °F 36% 29.95 in 10.0 mi West 10.4 mph 18.4 mph N/A   Clear
1:55 AM 41.0 °F 35.8 °F 15.8 °F 36% 29.96 in 10.0 mi West 8.1 mph 17.3 mph N/A   Clear
2:15 AM 41.0 °F 35.8 °F 15.8 °F 36% 29.97 in 10.0 mi WNW 8.1 mph 17.3 mph N/A   Clear
2:35 AM 39.2 °F 33.6 °F 15.8 °F 39% 29.97 in 10.0 mi West 8.1 mph - N/A   Clear
2:55 AM 39.2 °F 33.0 °F 15.8 °F 39% 29.98 in 10.0 mi West 9.2 mph - N/A   Clear
3:15 AM 39.2 °F 35.0 °F 15.8 °F 39% 29.99 in 10.0 mi West 5.8 mph - N/A   Clear
3:35 AM 39.2 °F 34.2 °F 15.8 °F 39% 29.99 in 10.0 mi WNW 6.9 mph - N/A   Clear
3:55 AM 37.4 °F 32.8 °F 15.8 °F 41% 29.98 in 10.0 mi West 5.8 mph - N/A   Clear
4:15 AM 37.4 °F 32.1 °F 15.8 °F 41% 29.98 in 10.0 mi West 6.9 mph - N/A   Clear
4:35 AM 37.4 °F 32.1 °F 17.6 °F 45% 29.98 in 10.0 mi West 6.9 mph - N/A   Clear
4:55 AM 37.4 °F 30.8 °F 17.6 °F 45% 29.99 in 10.0 mi West 9.2 mph - N/A   Clear
5:15 AM 37.4 °F 32.1 °F 15.8 °F 41% 29.98 in 10.0 mi West 6.9 mph - N/A   Clear
5:35 AM 35.6 °F 31.7 °F 15.8 °F 44% 29.99 in 10.0 mi West 4.6 mph - N/A   Clear
5:55 AM 35.6 °F 30.7 °F 17.6 °F 48% 30.00 in 10.0 mi West 5.8 mph - N/A   Clear
6:15 AM 35.6 °F 29.9 °F 17.6 °F 48% 30.00 in 10.0 mi West 6.9 mph - N/A   Clear
6:35 AM 33.8 °F 28.6 °F 15.8 °F 48% 30.00 in 10.0 mi West 5.8 mph - N/A   Clear
6:45 AM 33.8 °F 28.6 °F 17.6 °F 52% 30.00 in 10.0 mi West 5.8 mph - N/A   Clear
7:50 AM 35.6 °F 30.7 °F 17.6 °F 48% 30.02 in 10.0 mi West 5.8 mph - N/A   Clear
9:45 AM 42.8 °F 39.3 °F 17.6 °F 36% 30.05 in 10.0 mi West 5.8 mph - N/A   Partly Cloudy
10:50 AM 48.2 °F - 14.0 °F 25% 30.04 in 10.0 mi West 12.7 mph - N/A   Partly Cloudy
11:50 AM 51.8 °F - 14.0 °F 22% 30.02 in 10.0 mi West 10.4 mph - N/A   Clear
12:45 PM 55.4 °F - 14.0 °F 20% 29.99 in 10.0 mi WSW 10.4 mph - N/A   Partly Cloudy
1:45 PM 55.4 °F - 10.4 °F 17% 29.97 in 10.0 mi West 12.7 mph 20.7 mph N/A   Partly Cloudy
2:45 PM 57.2 °F - 10.4 °F 16% 29.96 in 10.0 mi North - - N/A   Partly Cloudy
3:45 PM 57.2 °F - 8.6 °F 14% 29.95 in 10.0 mi West 9.2 mph 20.7 mph N/A   Scattered Clouds
4:45 PM 57.2 °F - 8.6 °F 14% 29.96 in 10.0 mi SW 11.5 mph 17.3 mph N/A   Scattered Clouds
5:45 PM 55.4 °F - 10.4 °F 17% 29.96 in 10.0 mi SW 9.2 mph - N/A   Mostly Cloudy
6:45 PM 51.8 °F - 10.4 °F 19% 29.98 in 10.0 mi SSW 4.6 mph - N/A   Mostly Cloudy
7:45 PM 50.0 °F - 10.4 °F 20% 29.99 in 10.0 mi SSW 5.8 mph - N/A   Clear
8:45 PM 48.2 °F - 10.4 °F 22% 29.99 in 10.0 mi South 4.6 mph - N/A   Clear
9:15 PM 48.2 °F - 10.4 °F 22% 30.00 in 10.0 mi SSW 5.8 mph - N/A   Clear
9:35 PM 48.2 °F - 10.4 °F 22% 30.01 in 10.0 mi SSW 6.9 mph - N/A   Clear
9:55 PM 50.0 °F - 10.4 °F 20% 30.01 in 10.0 mi SSW 6.9 mph - N/A   Clear
10:15 PM 50.0 °F - 10.4 °F 20% 30.01 in 10.0 mi SSW 8.1 mph - N/A   Clear
10:35 PM 50.0 °F - 10.4 °F 20% 30.01 in 10.0 mi SW 6.9 mph - N/A   Partly Cloudy
10:55 PM 48.2 °F - 10.4 °F 22% 30.01 in 10.0 mi SW 6.9 mph - N/A   Partly Cloudy
11:15 PM 48.2 °F - 10.4 °F 22% 30.01 in 10.0 mi SW 6.9 mph - N/A   Partly Cloudy
11:35 PM 48.2 °F - 10.4 °F 22% 30.01 in 10.0 mi SW 6.9 mph - N/A   Clear
11:55 PM 48.2 °F - 10.4 °F 22% 30.01 in 10.0 mi SW 6.9 mph - N/A   Clear